Weather History for Budapest Ferihegy, Hungary

Change the Weather History Date:

Friday, January 27, 2012

  Actual Average Record
Temperature  
Mean Temperature 26 °F -  
Max Temperature 37 °F 40 °F 51 °F (2001)
Min Temperature 15 °F 24 °F 1 °F (2006)
Degree Days  
Heating Degree Days 39    
Moisture  
Dew Point 21 °F    
Average Humidity 81    
Maximum Humidity 93    
Minimum Humidity 52    
Precipitation  
Precipitation 0.00 in - - ()
Sea Level Pressure  
Sea Level Pressure 30.34 in    
Wind  
Wind Speed 3 mph ()    
Max Wind Speed 7 mph    
Max Gust Speed -    
Visibility 4.4 miles    
Events Fog    
Averages and records for this station are not official NWS values.
T = Trace of Precipitation, MM = Missing Value Source: Averaged Metar Reports

Daily Weather History Graph

Daily Weather History Graph

Search for Another Location

Airport:

Trip Planner

Search our weather history database for the weather conditions in past years. The results will help you decide how hot, cold, wet, or windy it might be!

Date:

Astronomy

Jan. 27, 2012 Rise Set
Actual Time 7:15 AM CET 4:35 PM CET
Civil Twilight 6:42 AM CET 5:09 PM CET
Nautical Twilight 6:05 AM CET 5:46 PM CET
Astronomical Twilight 5:29 AM CET 6:22 PM CET
Moon 8:40 AM CET (1/27) 9:33 PM CET (1/27)
Length of Visible Light 10h 26m
Length of Day
9h 19m
Waxing Crescent, 17% of the Moon is Illuminated
Jan 27
Waxing Crescent
Jan 31
First Quarter
Feb 7
Full
Feb 14
Last Quarter
Feb 21
New

Hourly Weather History & Observations

Time (CET) Temp. Windchill Dew Point Humidity Pressure Visibility Wind Dir Wind Speed Gust Speed Precip Events Conditions
12:00 AM 26.6 °F 19.1 °F 24.8 °F 93% 30.21 in 5.0 mi NNW 6.9 mph - N/A   Unknown
12:30 AM 26.6 °F 19.1 °F 23.0 °F 86% 30.21 in 5.0 mi NNW 6.9 mph - N/A   Unknown
1:00 AM 26.6 °F 21.2 °F 23.0 °F 86% 30.24 in 5.0 mi West 4.6 mph - N/A   Unknown
1:30 AM 23.0 °F - 21.2 °F 93% 30.24 in 5.0 mi Variable 2.3 mph - N/A   Unknown
2:00 AM 24.8 °F 20.5 °F 23.0 °F 93% 30.24 in - Variable 3.5 mph - N/A   Clear
2:30 AM 23.0 °F 15.8 °F 21.2 °F 93% 30.24 in - WNW 5.8 mph - N/A   Clear
3:00 AM 23.0 °F - 21.2 °F 93% 30.24 in - Variable 2.3 mph - N/A   Clear
3:30 AM 21.2 °F - 19.4 °F 93% 30.24 in - Variable 2.3 mph - N/A   Clear
4:00 AM 23.0 °F 17.0 °F 21.2 °F 93% 30.27 in - West 4.6 mph - N/A   Clear
4:30 AM 21.2 °F 14.9 °F 19.4 °F 93% 30.27 in - West 4.6 mph - N/A   Clear
5:00 AM 19.4 °F 12.8 °F 17.6 °F 93% 30.27 in - WNW 4.6 mph - N/A   Clear
5:30 AM 17.6 °F - 15.8 °F 93% 30.27 in - Variable 2.3 mph - N/A   Clear
6:00 AM 19.4 °F - 17.6 °F 93% 30.27 in - Variable 2.3 mph - N/A   Clear
6:30 AM 19.4 °F - 17.6 °F 93% 30.30 in - Variable 2.3 mph - N/A   Clear
7:00 AM 19.4 °F 11.5 °F 17.6 °F 93% 30.30 in 3.7 mi WNW 5.8 mph - N/A Fog Fog
7:30 AM 15.8 °F - 14.0 °F 93% 30.30 in 3.1 mi Variable 2.3 mph - N/A   Mist
8:00 AM 17.6 °F - 15.8 °F 93% 30.33 in 3.7 mi Variable 1.2 mph - N/A   Unknown
8:30 AM 21.2 °F - 19.4 °F 93% 30.33 in 3.7 mi Variable 2.3 mph - N/A   Unknown
9:00 AM 24.8 °F - 23.0 °F 93% 30.33 in 3.7 mi Variable 1.2 mph - N/A   Unknown
9:30 AM 28.4 °F - 24.8 °F 86% 30.33 in 2.8 mi Variable 1.2 mph - N/A   Mist
10:00 AM 30.2 °F - 24.8 °F 80% 30.36 in 3.1 mi Variable 2.3 mph - N/A   Mist
10:30 AM 32.0 °F - 24.8 °F 75% 30.36 in 3.7 mi Variable 2.3 mph - N/A   Unknown
11:00 AM 32.0 °F - 23.0 °F 69% 30.36 in 4.3 mi Variable 1.2 mph - N/A   Partly Cloudy
11:30 AM 33.8 °F 30.8 °F 23.0 °F 65% 30.36 in 4.3 mi Variable 3.5 mph - N/A   Partly Cloudy
12:00 PM 33.8 °F 30.8 °F 23.0 °F 65% 30.36 in 5.0 mi Variable 3.5 mph - N/A   Partly Cloudy
12:30 PM 35.6 °F 31.7 °F 23.0 °F 60% 30.36 in 6.2 mi SSE 4.6 mph - N/A   Partly Cloudy
1:00 PM 37.4 °F - 23.0 °F 56% 30.36 in 6.2 mi Variable 2.3 mph - N/A   Partly Cloudy
1:30 PM 35.6 °F - 23.0 °F 60% 30.36 in 6.2 mi Variable 2.3 mph - N/A   Partly Cloudy
2:00 PM 37.4 °F - 21.2 °F 52% 30.36 in 6.2 mi Variable 2.3 mph - N/A   Partly Cloudy
2:30 PM 37.4 °F 34.9 °F 23.0 °F 56% 30.36 in 6.2 mi Variable 3.5 mph - N/A   Partly Cloudy
3:00 PM 37.4 °F - 21.2 °F 52% 30.36 in - Calm Calm - N/A   Clear
3:30 PM 37.4 °F - 21.2 °F 52% 30.36 in - Calm Calm - N/A   Clear
4:00 PM 35.6 °F 32.8 °F 23.0 °F 60% 30.36 in - Variable 3.5 mph - N/A   Clear
4:30 PM 32.0 °F 28.7 °F 23.0 °F 69% 30.36 in 5.0 mi Variable 3.5 mph - N/A   Unknown
5:00 PM 32.0 °F - 23.0 °F 69% 30.39 in 5.0 mi Variable 2.3 mph - N/A   Unknown
5:30 PM 30.2 °F - 23.0 °F 75% 30.39 in 5.0 mi Variable 1.2 mph - N/A   Unknown
6:00 PM 26.6 °F 22.6 °F 21.2 °F 80% 30.39 in 5.0 mi Variable 3.5 mph - N/A   Unknown
6:30 PM 24.8 °F 17.9 °F 21.2 °F 86% 30.39 in 4.3 mi East 5.8 mph - N/A   Unknown
7:00 PM 24.8 °F 17.9 °F 21.2 °F 86% 30.39 in 4.3 mi ESE 5.8 mph - N/A   Unknown
7:30 PM 24.8 °F 20.5 °F 23.0 °F 93% 30.42 in 4.3 mi Variable 3.5 mph - N/A   Unknown
8:00 PM 24.8 °F - 21.2 °F 86% 30.42 in 4.3 mi Variable 2.3 mph - N/A   Unknown
8:30 PM 24.8 °F 20.5 °F 21.2 °F 86% 30.42 in 4.3 mi Variable 3.5 mph - N/A   Unknown
9:00 PM 23.0 °F 18.4 °F 19.4 °F 86% 30.42 in 3.7 mi Variable 3.5 mph - N/A   Unknown
9:30 PM 23.0 °F - 19.4 °F 86% 30.42 in 3.1 mi Variable 2.3 mph - N/A   Mist
10:00 PM 24.8 °F 20.5 °F 19.4 °F 80% 30.42 in 3.1 mi Variable 3.5 mph - N/A   Mist
10:30 PM 24.8 °F 20.5 °F 19.4 °F 80% 30.45 in 3.1 mi Variable 3.5 mph - N/A   Scattered Clouds
11:00 PM 24.8 °F 19.1 °F 19.4 °F 80% 30.45 in 3.1 mi ENE 4.6 mph - N/A   Partly Cloudy
11:30 PM 21.2 °F - 17.6 °F 86% 30.45 in 3.1 mi Variable 2.3 mph - N/A   Mist